Weather in Bolshiye Abakasy

Russia / Chuvash Republic     55°23′02″N   47°02′20″E
temp.,
°C
wind,
m/s
gust,
m/s
humid.,
%
clouds,
%
prec.,
mm/h
press.,
hPa
HPBL,
m
19 april, mon
mon1900:00+4ene5116855 0.0 1025459
03:00+2ene61267100 0.0 1026421
06:00+2ene71264100 0.0 1027580
09:00+3e81251100 0.0 1027835
12:00+6e91141100 0.0 10271358
15:00+7e91144100 0.0 10271546
18:00+6e7124585 0.0 10271054
21:00+3e7154413 0.0 1028547
20 april, tue
tue2000:00+1e715506 0.0 1028447
03:000e613585 0.0 1029373
06:00+1e614605 0.0 1029452
09:00+6ese912410 0.0 10291029
12:00+8ese911360 0.0 10291346
15:00+9ese810334 0.0 10271448
18:00+8ese712386 0.0 1026672
21:00+5ese71542100 0.0 1025631
21 april, wed
wed2100:00+4ese91744100 0.0 1023727
03:00+3se91848100 0.0 1022704
06:00+2se102056100 0.3 1021750
09:000se102190100 2.6 1020721
12:00+1se102091100 1.6 1019824
15:00+2se91791100 2.3 1019727
18:00+3sse91691100 0.0 1020590
21:00+3sse71493100 0.1 1021500
22 april, thu
thu2200:00+2sse61295100 0.0 1021394
03:00+3sse61196100 0.0 1022336
06:00+3sse51296100 0.0 1022424
09:00+5s51192100 0.0 1022542
12:00+8s6879100 0.0 1023960
15:00+11s58698 0.0 1023839
18:00+10sse61079100 0.2 1024326
21:00+7sse5118896 0.2 1025311
23 april, fri
fri2300:00+6sse41093100 0.0 1025247
03:00+5sse4893100 0.0 1026210
06:00+6sse4794100 0.0 1026201
09:00+7sse4687100 0.0 1026291
12:00+11se457158 0.0 1025583
15:00+13se556111 0.0 10241101
18:00+9se58745 0.0 1024572
21:00+6se488121 0.0 1023253